User: anonymous   Login
Location: Unspecified
(0.0000°N, 0.0000°E)
Time: 20:48:05
(UTC+00:00)
Language:

STARLINK-32859 - Orbit

View from above orbital plane
View from above orbital plane
View from above satellite
View from above satellite

Ground track
Ground track

The orbit is defined by the following mean orbital elements,

1 62861U          26145.22567823 +.00000000 +00000-0 +42502-3 0 00005
2 62861  53.1607 134.4275 0001421  86.6729 273.4434 15.30210562    01
Epoch (UTC): 25 May 2026 05:24:58
Eccentricity: 0.0001421
inclination: 53.1607°
perigee height: 474 km
apogee height: 476 km
right ascension of ascending node: 134.4275°
argument of perigee: 86.6729°
revolutions per day: 15.30210562
mean anomaly at epoch: 273.4434°

The dashed part of the orbit path shows where the satellite is in the earth's shadow,  

DLR